When you browse on this site, cookies collect data to enhance your experience and personalize the content and advertising you see.
Visit our Privacy Policy to learn more. By continuing to use the site, you agree to this use of cookies and data.

Meteo pe oră la Brčko

Astăzi, 16 Iulie, Joi

Timp Temperatura Precipitaţii Vânt Presiune Umiditate
00:00 +18°C° 0 mm 1 m/s 752 mmHg 83%
01:00 +18°C° 0 mm 1 m/s 752 mmHg 84%
02:00 +16°C° 0 mm 1 m/s 752 mmHg 85%
03:00 +16°C° 0 mm 1 m/s 752 mmHg 86%
04:00 +16°C° 0 mm 1 m/s 752 mmHg 88%
05:00 +18°C° 0 mm 1 m/s 752 mmHg 84%
06:00 +20°C° 0 mm 1 m/s 752 mmHg 80%
07:00 +21°C° 0 mm 1 m/s 753 mmHg 76%
08:00 +23°C° 0.1 mm 1 m/s 753 mmHg 71%
09:00 +24°C° 0.1 mm 2 m/s 753 mmHg 65%
10:00 +26°C° 0.1 mm 2 m/s 753 mmHg 60%
11:00 +26°C° 0.7 mm 2 m/s 752 mmHg 59%
12:00 +27°C° 0.7 mm 2 m/s 752 mmHg 58%
13:00 +27°C° 0.7 mm 1 m/s 752 mmHg 57%
14:00 +27°C° 0.1 mm 1 m/s 752 mmHg 55%
15:00 +27°C° 0.1 mm 1 m/s 751 mmHg 53%
16:00 +28°C° 0.1 mm 1 m/s 751 mmHg 51%
17:00 +26°C° 0.1 mm 1 m/s 751 mmHg 58%
18:00 +24°C° 0.1 mm 1 m/s 751 mmHg 64%
19:00 +23°C° 0.1 mm 1 m/s 751 mmHg 71%
20:00 +22°C° 0.1 mm 1 m/s 752 mmHg 73%
21:00 +20°C° 0.1 mm 1 m/s 752 mmHg 75%
22:00 +19°C° 0.1 mm 1 m/s 752 mmHg 78%
23:00 +19°C° 0 mm 1 m/s 752 mmHg 78%

Mâine, 17 Iulie, Vineri

Timp Temperatura Precipitaţii Vânt Presiune Umiditate
00:00 +18°C° 0 mm 1 m/s 752 mmHg 79%
01:00 +18°C° 0 mm 1 m/s 752 mmHg 80%
02:00 +18°C° 0 mm 1 m/s 752 mmHg 80%
03:00 +18°C° 0 mm 1 m/s 752 mmHg 80%
04:00 +16°C° 0 mm 1 m/s 752 mmHg 80%
05:00 +18°C° 0 mm 1 m/s 752 mmHg 79%
06:00 +18°C° 0 mm 2 m/s 752 mmHg 78%
07:00 +18°C° 0 mm 2 m/s 752 mmHg 77%
08:00 +18°C° 0 mm 3 m/s 752 mmHg 77%
09:00 +18°C° 0 mm 3 m/s 752 mmHg 77%
10:00 +18°C° 0 mm 4 m/s 752 mmHg 77%
11:00 +18°C° 0.1 mm 4 m/s 752 mmHg 79%
12:00 +18°C° 0.1 mm 4 m/s 752 mmHg 82%
13:00 +17°C° 0.1 mm 4 m/s 752 mmHg 85%
14:00 +17°C° 1.5 mm 3 m/s 752 mmHg 89%
15:00 +16°C° 1.5 mm 2 m/s 752 mmHg 93%
16:00 +16°C° 1.5 mm 1 m/s 752 mmHg 97%
17:00 +15°C° 2.1 mm 1 m/s 752 mmHg 97%
18:00 +15°C° 2.1 mm 1 m/s 752 mmHg 97%
19:00 +15°C° 2.1 mm 1 m/s 752 mmHg 97%
20:00 +15°C° 0.7 mm 1 m/s 752 mmHg 97%
21:00 +15°C° 0.7 mm 1 m/s 752 mmHg 97%
22:00 +15°C° 0.7 mm 1 m/s 752 mmHg 97%
23:00 +14°C° 0 mm 1 m/s 752 mmHg 96%

Poimâine, 18 Iulie, Sâmbătă

Timp Temperatura Precipitaţii Vânt Presiune Umiditate
00:00 +14°C° 0 mm 1 m/s 752 mmHg 96%
01:00 +14°C° 0 mm 1 m/s 752 mmHg 95%
02:00 +14°C° 0 mm 1 m/s 752 mmHg 95%
03:00 +13°C° 0 mm 1 m/s 752 mmHg 95%
04:00 +13°C° 0 mm 1 m/s 752 mmHg 95%
05:00 +14°C° 0 mm 2 m/s 752 mmHg 93%
06:00 +15°C° 0 mm 2 m/s 752 mmHg 91%
07:00 +16°C° 0 mm 2 m/s 752 mmHg 89%
08:00 +18°C° 0.1 mm 2 m/s 752 mmHg 83%
09:00 +19°C° 0.1 mm 2 m/s 752 mmHg 77%
10:00 +21°C° 0.1 mm 2 m/s 752 mmHg 71%
11:00 +21°C° 0.3 mm 2 m/s 752 mmHg 69%
12:00 +23°C° 0.3 mm 2 m/s 752 mmHg 66%
13:00 +24°C° 0.3 mm 2 m/s 751 mmHg 64%
14:00 +24°C° 0.5 mm 1 m/s 751 mmHg 65%
15:00 +24°C° 0.5 mm 1 m/s 751 mmHg 66%
16:00 +24°C° 0.5 mm 1 m/s 750 mmHg 67%
17:00 +22°C° 0.3 mm 1 m/s 750 mmHg 72%
18:00 +21°C° 0.3 mm 1 m/s 750 mmHg 77%
19:00 +20°C° 0.3 mm 1 m/s 750 mmHg 82%
20:00 +19°C° 0.2 mm 1 m/s 751 mmHg 84%
21:00 +18°C° 0.2 mm 1 m/s 751 mmHg 87%
22:00 +16°C° 0.2 mm 1 m/s 752 mmHg 89%
23:00 +16°C° 0.2 mm 1 m/s 752 mmHg 90%

19 Iulie, Duminică

Timp Temperatura Precipitaţii Vânt Presiune Umiditate
00:00 +15°C° 0.2 mm 2 m/s 752 mmHg 90%
01:00 +15°C° 0.2 mm 2 m/s 752 mmHg 91%
02:00 +14°C° 0 mm 2 m/s 752 mmHg 92%
03:00 +14°C° 0 mm 2 m/s 752 mmHg 92%
04:00 +14°C° 0 mm 2 m/s 752 mmHg 92%
05:00 +15°C° 0 mm 2 m/s 752 mmHg 90%
06:00 +16°C° 0 mm 2 m/s 752 mmHg 88%
07:00 +17°C° 0 mm 2 m/s 752 mmHg 86%
08:00 +19°C° 0.1 mm 2 m/s 752 mmHg 79%
09:00 +21°C° 0.1 mm 2 m/s 752 mmHg 73%
10:00 +24°C° 0.1 mm 2 m/s 752 mmHg 66%
11:00 +24°C° 0.3 mm 2 m/s 752 mmHg 64%
12:00 +25°C° 0.3 mm 2 m/s 752 mmHg 62%
13:00 +26°C° 0.3 mm 2 m/s 751 mmHg 60%
14:00 +26°C° 0.4 mm 2 m/s 751 mmHg 59%
15:00 +26°C° 0.4 mm 2 m/s 751 mmHg 58%
16:00 +26°C° 0.4 mm 2 m/s 751 mmHg 58%
17:00 +24°C° 0.2 mm 2 m/s 751 mmHg 64%
18:00 +23°C° 0.2 mm 1 m/s 751 mmHg 71%
19:00 +21°C° 0.2 mm 1 m/s 751 mmHg 77%
20:00 +20°C° 0.3 mm 1 m/s 751 mmHg 80%
21:00 +19°C° 0.3 mm 1 m/s 752 mmHg 82%
22:00 +18°C° 0.3 mm 1 m/s 752 mmHg 85%
23:00 +18°C° 0.2 mm 1 m/s 752 mmHg 87%

20 Iulie, Luni

Timp Temperatura Precipitaţii Vânt Presiune Umiditate
00:00 +18°C° 0.2 mm 1 m/s 752 mmHg 88%
01:00 +16°C° 0.2 mm 1 m/s 752 mmHg 90%
02:00 +16°C° 0.5 mm 1 m/s 752 mmHg 91%
03:00 +16°C° 0.5 mm 1 m/s 752 mmHg 92%
04:00 +16°C° 0.5 mm 2 m/s 752 mmHg 94%
05:00 +17°C° 0.2 mm 2 m/s 752 mmHg 92%
06:00 +18°C° 0.2 mm 2 m/s 752 mmHg 90%
07:00 +19°C° 0.2 mm 2 m/s 752 mmHg 87%
08:00 +21°C° 0 mm 2 m/s 752 mmHg 79%
09:00 +24°C° 0 mm 2 m/s 752 mmHg 70%
10:00 +26°C° 0 mm 2 m/s 752 mmHg 62%
11:00 +26°C° 0 mm 2 m/s 752 mmHg 60%
12:00 +27°C° 0 mm 3 m/s 752 mmHg 58%
13:00 +28°C° 0 mm 3 m/s 752 mmHg 56%
14:00 +28°C° 0.1 mm 3 m/s 752 mmHg 58%
15:00 +28°C° 0.1 mm 3 m/s 752 mmHg 60%
16:00 +28°C° 0.1 mm 3 m/s 752 mmHg 62%
17:00 +27°C° 0.1 mm 2 m/s 752 mmHg 67%
18:00 +25°C° 0.1 mm 1 m/s 752 mmHg 72%
19:00 +24°C° 0.1 mm 1 m/s 752 mmHg 77%
20:00 +23°C° 0 mm 1 m/s 752 mmHg 78%
21:00 +22°C° 0 mm 1 m/s 753 mmHg 80%
22:00 +20°C° 0 mm 2 m/s 753 mmHg 81%
23:00 +20°C° 0 mm 2 m/s 753 mmHg 82%

21 Iulie, Marţi

Timp Temperatura Precipitaţii Vânt Presiune Umiditate
00:00 +20°C° 0 mm 2 m/s 753 mmHg 82%
01:00 +19°C° 0 mm 2 m/s 753 mmHg 83%
02:00 +20°C° 0 mm 1 m/s 753 mmHg 84%
03:00 +20°C° 0 mm 1 m/s 753 mmHg 84%
04:00 +19°C° 0 mm 1 m/s 754 mmHg 84%
05:00 +21°C° 0 mm 1 m/s 754 mmHg 80%
06:00 +22°C° 0 mm 1 m/s 754 mmHg 76%
07:00 +24°C° 0 mm 1 m/s 754 mmHg 72%
08:00 +26°C° 0 mm 1 m/s 754 mmHg 66%
09:00 +28°C° 0 mm 1 m/s 754 mmHg 61%
10:00 +30°C° 0 mm 1 m/s 754 mmHg 56%
11:00 +30°C° 0 mm 1 m/s 754 mmHg 53%
12:00 +31°C° 0 mm 1 m/s 754 mmHg 50%
13:00 +32°C° 0 mm 1 m/s 753 mmHg 47%
14:00 +32°C° 0 mm 1 m/s 753 mmHg 47%
15:00 +32°C° 0 mm 1 m/s 753 mmHg 48%
16:00 +32°C° 0 mm 1 m/s 753 mmHg 48%
17:00 +30°C° 0 mm 1 m/s 753 mmHg 55%
18:00 +28°C° 0 mm 2 m/s 753 mmHg 62%
19:00 +26°C° 0 mm 2 m/s 752 mmHg 69%
20:00 +25°C° 0 mm 2 m/s 753 mmHg 70%
21:00 +24°C° 0 mm 2 m/s 753 mmHg 71%
22:00 +23°C° 0 mm 1 m/s 753 mmHg 72%
23:00 +23°C° 0 mm 1 m/s 753 mmHg 74%
Arată mai mult